Lacon, IL

10:27 AM CDT on June 28, 2017 (GMT -0500)
Lacon

Weather History for KC75 - March, 2013

Change the Weather History Date:

Monday, March 11, 2013

  Actual Average (KVYS) Record (KVYS)
Temperature  
Mean Temperature 38 °F -  
Max Temperature 44 °F 44 °F 76 °F (1972)
Min Temperature 30 °F 26 °F 0 °F (1984)
Degree Days  
Heating Degree Days 28    
Moisture  
Dew Point 34 °F    
Average Humidity 92    
Maximum Humidity 100    
Minimum Humidity 78    
Precipitation  
Precipitation 0.03 in - - ()
Sea Level Pressure  
Sea Level Pressure 29.69 in    
Wind  
Wind Speed 8 mph (WSW)    
Max Wind Speed 17 mph    
Max Gust Speed 28 mph    
Visibility 8 miles    
Events Rain    
Averages and records for this station are not official NWS values.
T = Trace of Precipitation, MM = Missing Value Source: NWS Daily Summary

Daily Weather History Graph

Daily Weather History Graph

Search for Another Location

Airport or City:

Trip Planner

Search our weather history database for the weather conditions in past years. The results will help you decide how hot, cold, wet, or windy it might be!

Date:

Astronomy

Mar. 11, 2013 Rise Set
Actual Time 7:15 AM CDT 6:59 PM CDT
Civil Twilight 6:47 AM CDT 7:27 PM CDT
Nautical Twilight 6:15 AM CDT 7:59 PM CDT
Astronomical Twilight 5:43 AM CDT 8:31 PM CDT
Moon 6:48 AM CDT (3/11) 7:12 PM CDT (3/11)
Length of Visible Light 12h 39m
Length of Day
11h 44m
Waning Crescent, 0% of the Moon is Illuminated
Mar 11
Waning Crescent
Mar 11
New
Mar 19
First Quarter
Mar 27
Full
Apr 2
Last Quarter

Hourly Weather History & Observations

Time (CDT) Temp. Windchill Dew Point Humidity Pressure Visibility Wind Dir Wind Speed Gust Speed Precip Events Conditions
12:15 AM 44.6 °F - 44.6 °F 100% 29.65 in 10.0 mi Calm Calm - N/A   Unknown
12:35 AM 43.9 °F 42.3 °F 43.9 °F 100% 29.64 in 10.0 mi South 3.5 mph - N/A   Unknown
12:55 AM 44.1 °F - 44.1 °F 100% 29.64 in 10.0 mi Calm Calm - N/A Rain Light Rain
1:15 AM 44.8 °F - 44.8 °F 100% 29.64 in 10.0 mi Calm Calm - N/A   Unknown
1:35 AM 44.1 °F - 44.1 °F 100% 29.64 in 3.0 mi Calm Calm - 0.01 in Rain Heavy Rain
1:55 AM 44.4 °F 42.9 °F 44.4 °F 100% 29.64 in 2.5 mi SSW 3.5 mph - 0.02 in   Heavy Drizzle
2:15 AM 44.1 °F 42.5 °F 44.1 °F 100% 29.63 in 3.0 mi SW 3.5 mph - N/A Rain Rain
2:35 AM 43.9 °F 42.3 °F 43.9 °F 100% 29.63 in 2.0 mi SSW 3.5 mph - N/A Rain Light Rain
2:55 AM 43.7 °F 42.1 °F 43.7 °F 100% 29.63 in 5.0 mi SSW 3.5 mph - N/A   Mist
3:15 AM 43.7 °F 40.3 °F 43.5 °F 99% 29.63 in 10.0 mi SW 5.8 mph - N/A   Unknown
3:35 AM 42.8 °F 36.6 °F 42.3 °F 98% 29.62 in 7.0 mi SW 11.5 mph 16.1 mph N/A   Unknown
3:55 AM 41.5 °F 34.6 °F 40.3 °F 95% 29.62 in 10.0 mi WSW 12.7 mph 17.3 mph N/A   Unknown
4:15 AM 39.7 °F 32.7 °F 39.0 °F 97% 29.62 in 7.0 mi WSW 11.5 mph 16.1 mph N/A Rain Light Rain
4:35 AM 38.5 °F 31.1 °F 37.4 °F 96% 29.61 in 10.0 mi SW 11.5 mph - 0.01 in   Unknown
4:55 AM 37.4 °F 34.9 °F 36.9 °F 98% 29.60 in 7.0 mi West 3.5 mph - 0.01 in   Unknown
5:15 AM 37.0 °F 31.6 °F 36.7 °F 99% 29.63 in 7.0 mi SW 6.9 mph - N/A   Unknown
5:35 AM 37.2 °F 30.0 °F 36.5 °F 97% 29.64 in 10.0 mi WSW 10.4 mph - N/A   Unknown
5:55 AM 37.0 °F 29.8 °F 36.3 °F 97% 29.64 in 7.0 mi WSW 10.4 mph - N/A   Light Drizzle
6:15 AM 36.5 °F 30.3 °F 36.0 °F 98% 29.65 in 7.0 mi WSW 8.1 mph - N/A   Unknown
6:35 AM 36.5 °F 29.2 °F 35.8 °F 97% 29.65 in 7.0 mi SW 10.4 mph - N/A   Unknown
6:55 AM 36.0 °F 29.0 °F 35.6 °F 99% 29.65 in 5.0 mi WSW 9.2 mph - N/A   Mist
7:15 AM 35.6 °F 27.5 °F 35.6 °F 100% 29.65 in 3.0 mi SW 11.5 mph 16.1 mph N/A   Mist
7:35 AM 35.6 °F 28.0 °F 34.7 °F 97% 29.65 in 10.0 mi WSW 10.4 mph 18.4 mph N/A   Unknown
7:55 AM 35.1 °F 25.9 °F 34.0 °F 96% 29.65 in 7.0 mi SW 13.8 mph 18.4 mph N/A   Unknown
8:15 AM 34.9 °F 27.1 °F 34.2 °F 97% 29.64 in 5.0 mi SW 10.4 mph 17.3 mph N/A   Mist
8:35 AM 34.7 °F 27.5 °F 33.8 °F 97% 29.64 in 4.0 mi SW 9.2 mph - N/A   Mist
8:55 AM 34.7 °F 28.8 °F 33.8 °F 97% 29.65 in 2.5 mi SW 6.9 mph - N/A   Mist
9:15 AM 34.7 °F 27.5 °F 34.0 °F 97% 29.65 in 1.8 mi SW 9.2 mph - N/A   Mist
9:35 AM 34.5 °F 28.6 °F 33.8 °F 97% 29.65 in 2.5 mi SW 6.9 mph - N/A   Light Drizzle
9:55 AM 34.5 °F 27.3 °F 33.6 °F 97% 29.64 in 3.0 mi SW 9.2 mph 16.1 mph N/A   Light Drizzle
10:15 AM 34.7 °F 27.5 °F 33.8 °F 97% 29.64 in 4.0 mi SW 9.2 mph - N/A   Light Drizzle
10:35 AM 34.3 °F 26.5 °F 33.4 °F 97% 29.64 in 3.0 mi SW 10.4 mph 17.3 mph N/A   Drizzle
10:55 AM 34.3 °F 25.9 °F 33.4 °F 97% 29.64 in 4.0 mi SW 11.5 mph - N/A   Light Drizzle
11:15 AM 34.7 °F 27.5 °F 33.6 °F 96% 29.64 in 4.0 mi SW 9.2 mph 17.3 mph N/A Rain Light Rain
11:35 AM 34.9 °F 27.7 °F 33.4 °F 94% 29.64 in 4.0 mi WSW 9.2 mph 18.4 mph N/A   Mist
11:55 AM 35.2 °F 28.8 °F 33.4 °F 93% 29.63 in 7.0 mi SW 8.1 mph 18.4 mph N/A   Unknown
12:15 PM 35.6 °F 28.6 °F 33.8 °F 93% 29.63 in 5.0 mi WSW 9.2 mph 17.3 mph N/A   Mist
12:35 PM 35.6 °F 28.0 °F 33.8 °F 93% 29.63 in 4.0 mi WSW 10.4 mph 16.1 mph N/A   Mist
12:55 PM 35.6 °F 28.0 °F 34.2 °F 94% 29.63 in 5.0 mi WSW 10.4 mph - N/A   Drizzle
1:15 PM 36.0 °F 28.0 °F 34.0 °F 93% 29.63 in 7.0 mi West 11.5 mph 18.4 mph N/A Rain Light Rain
1:35 PM 35.8 °F 28.3 °F 33.8 °F 92% 29.63 in 7.0 mi West 10.4 mph 17.3 mph N/A   Unknown
1:55 PM 35.6 °F 26.6 °F 33.1 °F 91% 29.63 in 5.0 mi West 13.8 mph 19.6 mph N/A Rain Rain
2:15 PM 35.8 °F 28.8 °F 33.3 °F 91% 29.63 in 10.0 mi West 9.2 mph 17.3 mph N/A   Unknown
2:35 PM 35.6 °F 28.0 °F 33.6 °F 92% 29.63 in 7.0 mi WNW 10.4 mph 17.3 mph N/A Rain Rain
2:55 PM 35.6 °F 28.0 °F 33.1 °F 91% 29.64 in 10.0 mi West 10.4 mph 21.9 mph N/A   Unknown
3:15 PM 35.6 °F 27.1 °F 32.0 °F 87% 29.65 in 10.0 mi West 12.7 mph 23.0 mph N/A Rain Light Rain
3:35 PM 35.1 °F 25.5 °F 32.0 °F 89% 29.66 in 10.0 mi West 15.0 mph 21.9 mph N/A Rain Light Rain
3:55 PM 34.9 °F 24.6 °F 31.3 °F 87% 29.67 in 10.0 mi West 17.3 mph 23.0 mph N/A   Unknown
4:15 PM 34.7 °F 24.7 °F 31.6 °F 89% 29.69 in 10.0 mi West 16.1 mph 21.9 mph N/A   Unknown
4:35 PM 34.3 °F 25.5 °F 30.2 °F 85% 29.70 in 10.0 mi West 12.7 mph 27.6 mph N/A   Unknown
4:55 PM 34.0 °F 23.8 °F 30.4 °F 87% 29.71 in 10.0 mi West 16.1 mph 21.9 mph N/A   Unknown
5:15 PM 33.4 °F 23.5 °F 29.5 °F 85% 29.72 in 10.0 mi West 15.0 mph 19.6 mph N/A   Unknown
5:35 PM 33.4 °F 23.9 °F 29.3 °F 85% 29.72 in 10.0 mi West 13.8 mph 23.0 mph N/A   Unknown
5:55 PM 33.8 °F 25.3 °F 28.4 °F 81% 29.73 in 10.0 mi West 11.5 mph 21.9 mph N/A   Unknown
6:15 PM 32.9 °F 24.1 °F 28.9 °F 85% 29.75 in 10.0 mi West 11.5 mph 20.7 mph N/A   Unknown
6:35 PM 32.9 °F 22.8 °F 28.4 °F 84% 29.76 in 10.0 mi West 15.0 mph 20.7 mph N/A   Unknown
6:55 PM 32.5 °F 22.7 °F 28.4 °F 85% 29.77 in 10.0 mi West 13.8 mph 23.0 mph N/A   Unknown
7:15 PM 32.4 °F 23.5 °F 28.2 °F 85% 29.78 in 10.0 mi West 11.5 mph 21.9 mph N/A   Unknown
7:35 PM 32.2 °F 23.2 °F 28.2 °F 85% 29.79 in 10.0 mi West 11.5 mph 21.9 mph N/A   Unknown
7:55 PM 32.0 °F 21.6 °F 28.0 °F 85% 29.80 in 10.0 mi West 15.0 mph 18.4 mph N/A   Unknown
8:15 PM 32.0 °F 23.0 °F 27.5 °F 83% 29.81 in 10.0 mi West 11.5 mph 18.4 mph N/A   Unknown
8:35 PM 32.0 °F 23.0 °F 27.1 °F 82% 29.82 in 10.0 mi West 11.5 mph 19.6 mph N/A   Unknown
8:55 PM 32.0 °F 24.2 °F 27.5 °F 83% 29.83 in 10.0 mi West 9.2 mph 18.4 mph N/A   Unknown
9:15 PM 32.0 °F 23.6 °F 27.3 °F 83% 29.83 in 10.0 mi West 10.4 mph 19.6 mph N/A   Unknown
9:35 PM 32.0 °F 23.6 °F 28.0 °F 85% 29.85 in 10.0 mi West 10.4 mph 19.6 mph N/A   Unknown
9:55 PM 31.6 °F 22.6 °F 27.0 °F 83% 29.85 in 10.0 mi West 11.5 mph 20.7 mph N/A   Unknown
10:15 PM 31.8 °F 22.3 °F 27.0 °F 82% 29.86 in 10.0 mi West 12.7 mph 18.4 mph N/A   Unknown
10:35 PM 31.8 °F 23.3 °F 26.6 °F 81% 29.88 in 10.0 mi West 10.4 mph 19.6 mph N/A   Unknown
10:55 PM 31.6 °F 20.7 °F 26.6 °F 82% 29.88 in 10.0 mi West 16.1 mph 21.9 mph N/A   Unknown
11:15 PM 31.5 °F 22.3 °F 26.6 °F 82% 29.88 in 10.0 mi West 11.5 mph 19.6 mph N/A   Unknown
11:35 PM 31.1 °F 20.1 °F 25.5 °F 80% 29.88 in 10.0 mi West 16.1 mph 21.9 mph N/A   Unknown
11:55 PM 30.9 °F 20.7 °F 24.8 °F 78% 29.89 in 10.0 mi West 13.8 mph 25.3 mph N/A   Unknown